This demonstration page uses our WeatherBlox Daily Observations layout. Learn more.

Left ArrowRight Arrow

53.62937, 11.41316

Hourly Observations for April 14, 2016

Temp ( °F °C ) Dew Point ( °F °C ) Humidity (%) Winds ( mph kmh ) Pressure ( in mb ) Visibility ( mi km ) Precip ( " mm )
6:20 am 06:20 Mostly Cloudy with Mist and Fog 41 5 41 5 100 100 N 7 11 29.80 1009 3 4 N/A
6:50 am 06:50 Mostly Cloudy with Mist and Fog 41 5 41 5 100 100 NNW 6 9 29.80 1009 2 4 N/A
7:20 am 07:20 Mostly Cloudy with Mist and Fog 43 6 41 5 93 93 N 8 13 29.80 1009 3 5 N/A
7:50 am 07:50 Mostly Cloudy 43 6 41 5 93 93 N 6 9 29.80 1009 4 7 N/A
8:20 am 08:20 Mostly Cloudy 43 6 41 5 93 93 N 7 11 29.83 1010 4 7 N/A
8:50 am 08:50 Mostly Cloudy 45 7 41 5 87 87 N 8 13 29.83 1010 6 9 N/A
9:20 am 09:20 Mostly Cloudy 45 7 39 4 81 81 N 7 11 29.83 1010 30 48 N/A
9:50 am 09:50 Mostly Cloudy 45 7 41 5 87 87 NNW 9 15 29.85 1011 30 48 N/A
10:20 am 10:20 Mostly Cloudy 45 7 41 5 87 87 N 6 9 29.85 1011 30 48 N/A
10:50 am 10:50 Mostly Cloudy 46 8 41 5 82 82 NNW 7 11 29.85 1011 30 48 N/A
11:20 am 11:20 Mostly Cloudy 48 9 41 5 76 76 NNW 6 9 29.85 1011 30 48 N/A
11:50 am 11:50 Mostly Cloudy 48 9 41 5 76 76 NNW 7 11 29.85 1011 30 48 N/A
12:20 pm 12:20 Mostly Cloudy 50 10 41 5 71 71 NNW 7 11 29.85 1011 30 48 N/A
12:50 pm 12:50 Mostly Cloudy 52 11 41 5 67 67 NNW 8 13 29.85 1011 30 48 N/A
1:20 pm 13:20 Mostly Cloudy 52 11 39 4 62 62 NNW 8 13 29.85 1011 30 48 N/A
1:50 pm 13:50 Mostly Cloudy 52 11 39 4 62 62 NW 10 17 29.85 1011 30 48 N/A
2:20 pm 14:20 Mostly Cloudy 52 11 39 4 62 62 NW 9 15 29.85 1011 30 48 N/A
2:50 pm 14:50 Partly Cloudy 54 12 37 3 54 54 NW 8 13 29.85 1011 30 48 N/A
3:20 pm 15:20 Mostly Cloudy 54 12 39 4 58 58 WNW 9 15 29.85 1011 30 48 N/A
3:50 pm 15:50 Partly Cloudy 54 12 37 3 54 54 NW 9 15 29.85 1011 30 48 N/A
4:20 pm 16:20 Mostly Sunny 54 12 37 3 54 54 NW 12 19 29.85 1011 7 11 N/A
4:50 pm 16:50 Mostly Sunny 54 12 39 4 58 58 NW 9 15 29.85 1011 30 48 N/A
5:20 pm 17:20 Mostly Sunny 54 12 39 4 58 58 NW 7 11 29.85 1011 7 11 N/A
5:50 pm 17:50 Mostly Sunny 54 12 39 4 58 58 NNW 6 9 29.85 1011 7 11 N/A
6:20 pm 18:20 Mostly Sunny 52 11 37 3 58 58 N 6 9 29.85 1011 7 11 N/A
6:50 pm 18:50 Mostly Sunny 52 11 36 2 54 54 NNW 7 11 29.85 1011 7 11 N/A

Powered by AerisWeather